Regional Weather Roundup
Issued by NWS Green Bay, WI

Home | Current Version | Previous Version | Graphics & Text | Print | Product List | Glossary Off
Versions: 1 2 3 4 5 6 7 8 9 10 11 12 13 14 15 16 17 18 19 20 21 22 23 24 25 26 27 28 29 30 31 32 33 34 35 36 37 38 39 40 41 42 43 44 45 46 47 48 49 50

000
ASUS43 KGRB 262000
RWRGRB

NORTH-CENTRAL AND NORTHEAST WISCONSIN REGIONAL WEATHER ROUNDUP
NATIONAL WEATHER SERVICE GREEN BAY WI
300 PM CDT MON SEP 26 2016

WIZ005-009-010>012-018-019-262100-
NORTH CENTRAL WISCONSIN

CITY           SKY/WX    TMP DP  RH WIND       PRES   REMARKS
IRONWOOD       LGT RAIN  49  47  93 W17G25    29.69S
MANITOWISH WTR NOT AVBL
ARBOR VITAE    NOT AVBL
EAGLE RIVER    NOT AVBL
LAND O LAKES   NOT AVBL
RHINELANDER    CLOUDY    53  42  66 W23G30    29.74R
PHILLIPS       NOT AVBL
ANTIGO         NOT AVBL
TOMAHAWK       NOT AVBL
MERRILL        NOT AVBL
$$

WIZ013-073-262100-
NORTHEAST WISCONSIN

CITY           SKY/WX    TMP DP  RH WIND       PRES   REMARKS
IRON MOUNTAIN  CLOUDY    55  43  63 W14G21    29.68R
MARINETTE      CLOUDY    58  43  57 W10G17    29.74R
$$

WIZ017-030-035>037-045-262100-
CENTRAL WISCONSIN

CITY           SKY/WX    TMP DP  RH WIND       PRES   REMARKS
MEDFORD        NOT AVBL
WAUSAU         PTSUNNY   58  39  49 W23G32    29.77R
MOSINEE        NOT AVBL
MARSHFIELD     PTSUNNY   60  37  42 W24G40    29.82R
WISC RAPIDS    CLOUDY    63  40  42 W18G30    29.83S
STEVENS POINT  NOT AVBL
WAUPACA        NOT AVBL
SHAWANO        NOT AVBL
CLINTONVILLE   NOT AVBL
WAUTOMA        CLOUDY    62  39  42 W17G31    29.83F
$$

WIZ038-039-048-051-262100-
FOX VALLEY

CITY           SKY/WX    TMP DP  RH WIND       PRES   REMARKS
NWS GREEN BAY  PTSUNNY   62  40  44 W21G32    29.78R
APPLETON       PTSUNNY   61  36  39 W21G29    29.80R
OSHKOSH        CLOUDY    61  39  44 W12G23    29.82R
FOND DU LAC    PTSUNNY   62  39  42 W14G24    29.84S
$$

WIZ022-050-052-262100-
EAST CENTRAL WISCONSIN

CITY           SKY/WX    TMP DP  RH WIND       PRES   REMARKS
EPHRAIM        NOT AVBL
WASHINGTON ISL NOT AVBL
STURGEON BAY   CLOUDY    60  42  51 W21G28    29.75R
MANITOWOC      NOT AVBL
SHEBOYGAN      PTSUNNY   64  37  36 W20G26    29.82F
$$

LMZ563-521-522-541>543-262100-
LAKESHORE

STATION/POSITION TIME  TEMP    WIND        PRES    VSBY  WAVE
                       AIR SEA DIR/SP/G                  HT/PER
                 (UTC) (F)     (DEG/KT/KT) (MB)    (MI)  (FT/S)
SHEBOYGAN LKSHOR 1900   63     280/ 26/ 32 1009.5F
KEWAUNEE LKSHORE 1900   62     250/ 18/ 25 1007.5F
NORTHPORT PIER   1900   59     260/  9/ 20 1006.1S
N MID LAKE BUOY  1850   59 67  240/ 25/ 29 1004.5F         6/ 7
CHAMBERS ISLAND  1900   59     230/ 11/ 21 1005.8F
MENOMINEE LKSHOR 1900   60     240/ 16/ 21 1005.8F
$$




USA.gov is the U.S. government's official web portal to all federal, state and local government web resources and services.